.
WxDataArchive / Data Records for 2015-10-27
2015-10-26 October 2015 2015-10-28

Data Records for Tuesday, 27 October 2015

Time	Temp	Chill	HIndex	Humid	Dewpt	 Wind 	HiWind	WindDir	Rain 	Barom
-----	----	-----	------	-----	-----	------	------	-------	-----	-----
00:00	48.6	48.6	48.6	77	41.7	1	6	90	0.00	30.333 
00:05	48.6	48.6	48.6	77	41.7	2	5	68	0.00	30.333 
00:10	48.6	48.6	48.6	77	41.7	2	5	90	0.00	30.333 
00:15	48.5	48.5	48.5	78	42.0	1	4	90	0.00	30.332 
00:20	48.5	48.5	48.5	78	42.0	1	5	68	0.00	30.332 
00:25	48.3	48.3	48.3	78	41.8	2	6	90	0.00	30.332 
00:30	48.2	48.2	48.2	79	42.0	1	4	68	0.00	30.328 
00:35	48.2	48.2	48.2	79	42.0	1	3	90	0.00	30.328 
00:40	48.0	48.0	48.0	80	42.1	1	4	90	0.00	30.328 
00:45	48.0	48.0	48.0	80	42.1	1	4	90	0.00	30.328 
00:50	47.9	47.9	47.9	80	42.0	1	3	68	0.00	30.328 
00:55	47.9	47.9	47.9	80	42.0	0	2	68	0.00	30.328 
01:00	47.7	47.7	47.7	80	41.8	1	4	68	0.00	30.320 
01:05	47.6	47.6	47.6	81	42.1	1	4	68	0.00	30.320 
01:10	47.6	47.6	47.6	81	42.1	1	3	68	0.00	30.320 
01:15	47.6	47.6	47.6	81	42.1	0	3	68	0.00	30.315 
01:20	47.4	47.4	47.4	81	41.9	0	3	68	0.00	30.315 
01:25	47.4	47.4	47.4	81	41.9	2	4	90	0.00	30.315 
01:30	47.4	47.4	47.4	82	42.2	1	3	90	0.00	30.312 
01:35	47.4	47.4	47.4	82	42.2	1	5	90	0.00	30.312 
01:40	47.3	47.3	47.3	82	42.1	0	3	90	0.00	30.312 
01:45	47.3	47.3	47.3	82	42.1	1	5	90	0.00	30.315 
01:50	47.3	47.3	47.3	82	42.1	1	4	90	0.00	30.315 
01:55	47.1	47.1	47.1	82	41.9	0	2	90	0.00	30.315 
02:00	47.1	47.1	47.1	82	41.9	0	3	90	0.00	30.316 
02:05	47.0	47.0	47.0	82	41.8	0	3	90	0.00	30.316 
02:10	47.0	47.0	47.0	82	41.8	1	5	90	0.00	30.316 
02:15	47.0	47.0	47.0	82	41.8	1	4	68	0.00	30.311 
02:20	47.0	47.0	47.0	81	41.5	2	5	68	0.00	30.311 
02:25	47.0	47.0	47.0	81	41.5	1	4	68	0.00	30.311 
02:30	47.0	47.0	47.0	81	41.5	1	4	68	0.00	30.306 
02:35	47.0	47.0	47.0	81	41.5	1	3	68	0.00	30.306 
02:40	47.0	47.0	47.0	81	41.5	0	3	68	0.00	30.306 
02:45	46.8	46.8	46.8	81	41.3	1	4	68	0.00	30.301 
02:50	46.8	46.8	46.8	81	41.3	1	3	68	0.00	30.301 
02:55	46.7	46.7	46.7	81	41.2	1	5	90	0.00	30.301 
03:00	46.7	46.7	46.7	80	40.9	2	5	112	0.00	30.294 
03:05	46.7	46.7	46.7	80	40.9	1	2	112	0.00	30.294 
03:10	46.5	46.5	46.5	80	40.7	0	2	112	0.00	30.294 
03:15	46.5	46.5	46.5	79	40.3	1	3	112	0.00	30.290 
03:20	46.4	46.4	46.4	79	40.2	0	3	90	0.00	30.290 
03:25	46.4	46.4	46.4	79	40.2	1	3	68	0.00	30.290 
03:30	46.4	46.4	46.4	78	39.9	1	3	68	0.00	30.291 
03:35	46.4	46.4	46.4	78	39.9	1	3	68	0.00	30.291 
03:40	46.2	46.2	46.2	78	39.7	0	2	68	0.00	30.291 
03:45	46.2	46.2	46.2	78	39.7	1	3	68	0.00	30.286 
03:50	46.2	46.2	46.2	77	39.4	1	3	68	0.00	30.286 
03:55	46.2	46.2	46.2	77	39.4	1	3	68	0.00	30.286 
04:00	46.2	46.2	46.2	77	39.4	1	3	68	0.00	30.283 
04:05	46.2	46.2	46.2	77	39.4	1	5	112	0.00	30.283 
04:10	46.2	46.2	46.2	77	39.4	0	2	112	0.00	30.283 
04:15	46.1	46.1	46.1	77	39.3	1	3	112	0.00	30.278 
04:20	46.1	46.1	46.1	77	39.3	1	4	112	0.00	30.278 
04:25	46.1	46.1	46.1	77	39.3	1	3	112	0.00	30.278 
04:30	46.1	46.1	46.1	77	39.3	0	1	112	0.00	30.280 
04:35	46.0	46.0	46.0	77	39.2	0	1	112	0.00	30.280 
04:40	46.0	46.0	46.0	78	39.5	0	1	112	0.00	30.280 
04:45	45.8	45.8	45.8	77	39.0	1	5	112	0.00	30.270 
04:50	45.8	45.8	45.8	77	39.0	0	1	112	0.00	30.270 
04:55	45.8	45.8	45.8	78	39.3	0	1	112	0.00	30.270 
05:00	45.7	45.7	45.7	78	39.2	0	2	112	0.00	30.269 
05:05	45.7	45.7	45.7	78	39.2	0	2	112	0.00	30.269 
05:10	45.5	45.5	45.5	78	39.0	1	4	112	0.00	30.269 
05:15	45.5	45.5	45.5	78	39.0	0	2	112	0.00	30.268 
05:20	45.5	45.5	45.5	78	39.0	0	2	112	0.00	30.268 
05:25	45.5	45.5	45.5	78	39.0	0	3	112	0.00	30.268 
05:30	45.4	45.4	45.4	78	38.9	0	2	112	0.00	30.269 
05:35	45.4	45.4	45.4	78	38.9	1	3	112	0.00	30.269 
05:40	45.4	45.4	45.4	78	38.9	0	1	112	0.00	30.269 
05:45	45.2	45.2	45.2	78	38.8	0	1	112	0.00	30.270 
05:50	45.1	45.1	45.1	78	38.7	1	2	112	0.00	30.270 
05:55	45.1	45.1	45.1	78	38.7	0	2	112	0.00	30.270 
06:00	45.1	45.1	45.1	78	38.7	0	2	112	0.00	30.270 
06:05	44.9	44.9	44.9	78	38.5	0	2	112	0.00	30.270 
06:10	44.9	44.9	44.9	78	38.5	0	3	112	0.00	30.270 
06:15	44.8	44.8	44.8	78	38.4	0	1	112	0.00	30.270 
06:20	44.8	44.8	44.8	78	38.4	0	1	112	0.00	30.270 
06:25	44.6	44.6	44.6	78	38.2	0	1	112	0.00	30.270 
06:30	44.6	44.6	44.6	78	38.2	0	0	---	0.00	30.274 
06:35	44.5	44.5	44.5	78	38.1	0	0	---	0.00	30.274 
06:40	44.3	44.3	44.3	78	37.9	0	0	---	0.00	30.274 
06:45	44.3	44.3	44.3	78	37.9	0	1	112	0.00	30.274 
06:50	44.3	44.3	44.3	78	37.9	0	1	112	0.00	30.274 
06:55	44.3	44.3	44.3	78	37.9	0	2	112	0.00	30.274 
07:00	44.3	44.3	44.3	78	37.9	0	1	112	0.00	30.276 
07:05	44.3	44.3	44.3	78	37.9	0	0	---	0.00	30.276 
07:10	44.2	44.2	44.2	78	37.8	0	1	112	0.00	30.276 
07:15	44.2	44.2	44.2	78	37.8	0	0	---	0.00	30.281 
07:20	44.2	44.2	44.2	78	37.8	0	0	---	0.00	30.281 
07:25	44.2	44.2	44.2	78	37.8	0	1	112	0.00	30.281 
07:30	44.2	44.2	44.2	78	37.8	0	1	112	0.00	30.279 
07:35	44.2	44.2	44.2	78	37.8	0	1	112	0.00	30.279 
07:40	44.1	44.1	44.1	78	37.7	0	1	112	0.00	30.279 
07:45	44.1	44.1	44.1	78	37.7	0	1	112	0.00	30.281 
07:50	43.9	43.9	43.9	78	37.5	0	1	112	0.00	30.281 
07:55	43.8	43.8	43.8	78	37.4	0	1	112	0.00	30.281 
08:00	43.6	43.6	43.6	79	37.5	0	1	112	0.00	30.281 
08:05	43.5	43.5	43.5	79	37.4	0	1	112	0.00	30.281 
08:10	43.5	43.5	43.5	79	37.4	0	1	112	0.00	30.281 
08:15	43.5	43.5	43.5	79	37.4	0	1	112	0.00	30.280 
08:20	43.5	43.5	43.5	79	37.4	0	2	112	0.00	30.280 
08:25	43.5	43.5	43.5	79	37.4	0	2	112	0.00	30.280 
08:30	43.5	43.5	43.5	78	37.1	0	2	112	0.00	30.280 
08:35	43.6	43.6	43.6	78	37.2	1	3	90	0.00	30.280 
08:40	43.6	43.6	43.6	78	37.2	1	4	90	0.00	30.280 
08:45	43.8	43.8	43.8	78	37.4	0	2	90	0.00	30.284 
08:50	43.8	43.8	43.8	77	37.1	0	2	90	0.00	30.284 
08:55	43.8	43.8	43.8	77	37.1	0	1	90	0.00	30.284 
09:00	43.9	43.9	43.9	77	37.2	0	1	90	0.00	30.293 
09:05	43.9	43.9	43.9	77	37.2	0	2	90	0.00	30.293 
09:10	44.1	44.1	44.1	77	37.4	1	3	90	0.00	30.293 
09:15	44.1	44.1	44.1	77	37.4	0	2	90	0.00	30.292 
09:20	44.2	44.2	44.2	77	37.5	1	5	90	0.00	30.292 
09:25	44.5	44.5	44.5	77	37.7	1	3	112	0.00	30.292 
09:30	44.6	44.6	44.6	76	37.5	1	4	112	0.00	30.282 
09:35	44.9	44.9	44.9	75	37.5	1	4	90	0.00	30.282 
09:40	45.2	45.2	45.2	74	37.4	2	6	90	0.00	30.282 
09:45	45.5	45.5	45.5	74	37.7	1	4	90	0.00	30.285 
09:50	45.7	45.7	45.7	73	37.5	1	5	112	0.00	30.285 
09:55	46.0	46.0	46.0	73	37.8	1	3	112	0.00	30.285 
10:00	46.2	46.2	46.2	73	38.0	0	2	90	0.00	30.289 
10:05	46.4	46.4	46.4	71	37.5	1	3	90	0.00	30.289 
10:10	46.5	46.5	46.5	71	37.6	1	3	0	0.00	30.289 
10:15	46.7	46.7	46.7	70	37.4	1	5	112	0.00	30.289 
10:20	46.8	46.8	46.8	69	37.2	2	4	112	0.00	30.289 
10:25	47.0	47.0	47.0	70	37.7	1	3	68	0.00	30.289 
10:30	47.0	47.0	47.0	70	37.7	1	4	90	0.00	30.285 
10:35	47.1	47.1	47.1	69	37.5	3	6	90	0.00	30.285 
10:40	47.3	47.3	47.3	69	37.7	2	6	90	0.00	30.285 
10:45	47.4	47.4	47.4	69	37.7	2	6	90	0.00	30.278 
10:50	47.6	47.6	47.6	69	37.9	1	4	90	0.00	30.278 
10:55	47.6	47.6	47.6	69	37.9	2	9	90	0.00	30.278 
11:00	47.7	47.7	47.7	69	38.0	2	9	90	0.00	30.275 
11:05	47.7	47.7	47.7	69	38.0	2	5	90	0.00	30.275 
11:10	47.9	47.9	47.9	69	38.2	2	5	90	0.00	30.275 
11:15	48.0	48.0	48.0	68	37.9	2	4	68	0.00	30.266 
11:20	48.0	48.0	48.0	68	37.9	2	5	68	0.00	30.266 
11:25	48.2	48.2	48.2	68	38.1	2	6	90	0.00	30.266 
11:30	48.3	48.3	48.3	68	38.2	2	5	68	0.00	30.263 
11:35	48.3	48.3	48.3	68	38.2	2	4	90	0.00	30.263 
11:40	48.5	48.5	48.5	68	38.4	2	5	90	0.00	30.263 
11:45	48.5	48.5	48.5	68	38.4	2	5	90	0.00	30.259 
11:50	48.6	48.6	48.6	68	38.5	1	4	68	0.00	30.259 
11:55	48.8	48.8	48.8	68	38.7	0	3	68	0.00	30.259 
12:00	48.9	48.9	48.9	67	38.4	2	5	68	0.00	30.260 
12:05	49.1	49.1	49.1	67	38.6	2	5	112	0.00	30.260 
12:10	49.2	49.2	49.2	68	39.1	1	4	90	0.00	30.260 
12:15	49.4	49.4	49.4	67	38.9	1	5	90	0.00	30.252 
12:20	49.5	49.5	49.5	66	38.6	3	7	90	0.00	30.252 
12:25	49.6	49.6	49.6	66	38.7	3	6	90	0.00	30.252 
12:30	49.8	49.8	49.8	65	38.5	3	9	90	0.00	30.245 
12:35	49.9	49.9	49.9	66	39.0	2	7	45	0.00	30.245 
12:40	50.1	50.1	50.1	65	38.8	2	6	112	0.00	30.245 
12:45	50.2	50.2	50.2	65	38.9	2	5	90	0.00	30.241 
12:50	50.4	50.4	50.4	65	39.1	3	7	90	0.00	30.241 
12:55	50.5	50.5	50.5	65	39.2	2	5	90	0.00	30.241 
13:00	50.7	50.7	50.7	65	39.4	2	6	90	0.00	30.226 
13:05	50.8	50.8	50.8	64	39.1	2	6	68	0.00	30.226 
13:10	51.0	51.0	51.0	64	39.3	3	7	90	0.00	30.226 
13:15	51.0	51.0	51.0	64	39.3	3	7	90	0.00	30.211 
13:20	51.3	51.3	51.3	65	39.9	2	6	90	0.00	30.211 
13:25	51.4	51.4	51.4	64	39.6	3	9	90	0.00	30.211 
13:30	51.6	51.6	51.6	63	39.4	3	7	112	0.00	30.198 
13:35	51.7	51.7	51.7	64	39.9	2	6	90	0.00	30.198 
13:40	51.9	51.9	51.9	63	39.7	2	7	90	0.00	30.198 
13:45	52.0	52.0	52.0	63	39.8	3	6	90	0.00	30.182 
13:50	52.2	52.2	52.2	63	40.0	2	5	90	0.00	30.182 
13:55	52.3	52.3	52.3	62	39.7	3	7	112	0.00	30.182 
14:00	52.6	52.6	52.6	62	40.0	2	7	112	0.00	30.171 
14:05	52.9	52.9	52.9	62	40.2	2	6	90	0.00	30.171 
14:10	53.2	53.2	53.2	60	39.7	4	11	90	0.00	30.171 
14:15	53.5	53.5	53.5	60	40.0	4	10	112	0.00	30.161 
14:20	53.8	53.8	53.8	59	39.8	3	10	90	0.00	30.161 
14:25	53.9	53.9	53.9	58	39.5	3	11	112	0.00	30.161 
14:30	54.1	54.1	54.1	58	39.7	4	10	90	0.00	30.152 
14:35	54.2	54.2	54.2	58	39.7	3	7	112	0.00	30.152 
14:40	54.5	54.5	54.5	58	40.0	3	7	90	0.00	30.152 
14:45	54.7	54.7	54.7	57	39.8	4	9	90	0.00	30.138 
14:50	54.8	54.8	54.8	58	40.3	2	7	90	0.00	30.138 
14:55	54.8	54.8	54.8	57	39.9	3	7	90	0.00	30.138 
15:00	55.1	55.1	55.1	56	39.7	3	7	112	0.00	30.130 
15:05	55.1	55.1	55.1	56	39.7	3	10	90	0.00	30.130 
15:10	55.1	55.1	55.1	56	39.7	4	10	90	0.00	30.130 
15:15	55.3	55.3	55.3	56	39.9	3	14	90	0.00	30.129 
15:20	55.3	55.3	55.3	56	39.9	3	9	90	0.00	30.129 
15:25	55.3	55.3	55.3	56	39.9	3	7	90	0.00	30.129 
15:30	55.4	55.4	55.4	56	40.0	3	10	90	0.00	30.119 
15:35	55.4	55.4	55.4	56	40.0	4	9	90	0.00	30.119 
15:40	55.4	55.4	55.4	56	40.0	3	12	90	0.00	30.119 
15:45	55.1	55.1	55.1	56	39.7	4	12	112	0.00	30.117 
15:50	55.0	55.0	55.0	56	39.6	4	14	90	0.00	30.117 
15:55	54.8	54.8	54.8	57	39.9	4	10	90	0.00	30.117 
16:00	54.7	54.7	54.7	57	39.8	3	9	90	0.00	30.104 
16:05	54.7	54.7	54.7	57	39.8	5	16	90	0.00	30.104 
16:10	54.5	54.5	54.5	58	40.0	5	12	90	0.00	30.104 
16:15	54.5	54.5	54.5	58	40.0	2	7	90	0.00	30.097 
16:20	54.5	54.5	54.5	59	40.5	3	7	90	0.00	30.097 
16:25	54.5	54.5	54.5	58	40.0	4	10	90	0.00	30.097 
16:30	54.5	54.5	54.5	59	40.5	4	9	90	0.00	30.087 
16:35	54.5	54.5	54.5	59	40.5	3	11	90	0.00	30.087 
16:40	54.5	54.5	54.5	59	40.5	4	10	90	0.00	30.087 
16:45	54.7	54.7	54.7	58	40.2	4	13	90	0.00	30.085 
16:50	54.7	54.7	54.7	58	40.2	3	9	90	0.00	30.085 
16:55	54.5	54.5	54.5	59	40.5	4	10	90	0.00	30.085 
17:00	54.5	54.5	54.5	59	40.5	4	11	90	0.00	30.084 
17:05	54.4	54.4	54.4	59	40.4	5	10	90	0.00	30.084 
17:10	54.2	54.2	54.2	59	40.2	4	10	90	0.00	30.084 
17:15	54.2	54.2	54.2	60	40.6	3	7	90	0.00	30.077 
17:20	54.1	54.1	54.1	60	40.5	4	9	90	0.00	30.077 
17:25	54.1	54.1	54.1	60	40.5	4	7	90	0.00	30.077 
17:30	54.1	54.1	54.1	61	41.0	3	6	90	0.00	30.073 
17:35	53.9	53.9	53.9	61	40.8	4	13	90	0.00	30.073 
17:40	53.9	53.9	53.9	61	40.8	3	9	90	0.00	30.073 
17:45	53.9	53.9	53.9	62	41.2	3	10	90	0.00	30.071 
17:50	53.8	53.8	53.8	61	40.7	4	7	90	0.00	30.071 
17:55	53.8	53.8	53.8	62	41.1	4	10	90	0.00	30.071 
18:00	53.8	53.8	53.8	62	41.1	4	11	112	0.00	30.070 
18:05	53.8	53.8	53.8	62	41.1	4	11	90	0.00	30.070 
18:10	53.6	53.6	53.6	63	41.3	4	11	90	0.00	30.070 
18:15	53.5	53.5	53.5	65	42.0	3	9	90	0.00	30.065 
18:20	53.2	53.2	53.2	67	42.5	3	6	90	0.00	30.065 
18:25	52.9	52.9	52.9	70	43.4	3	11	90	0.00	30.065 
18:30	52.6	52.6	52.6	71	43.5	3	10	90	0.00	30.058 
18:35	52.3	52.3	52.3	73	43.9	3	7	68	0.00	30.058 
18:40	52.0	52.0	52.0	75	44.3	3	7	68	0.00	30.058 
18:45	51.7	51.7	51.7	76	44.4	3	6	90	0.00	30.056 
18:50	51.6	51.6	51.6	77	44.6	2	7	90	0.00	30.056 
18:55	51.3	51.3	51.3	78	44.7	2	5	90	0.01	30.056 
19:00	51.1	51.1	51.1	79	44.8	2	5	90	0.00	30.057 
19:05	51.0	51.0	51.0	79	44.7	3	6	90	0.00	30.057 
19:10	51.0	51.0	51.0	80	45.0	2	5	68	0.00	30.057 
19:15	50.8	50.8	50.8	81	45.2	3	6	68	0.00	30.056 
19:20	50.7	50.7	50.7	81	45.1	2	6	90	0.00	30.056 
19:25	50.5	50.5	50.5	82	45.2	3	6	112	0.00	30.056 
19:30	50.4	50.4	50.4	83	45.4	2	5	90	0.00	30.052 
19:35	50.4	50.4	50.4	84	45.7	2	5	90	0.01	30.052 
19:40	50.2	50.2	50.2	84	45.6	2	4	68	0.00	30.052 
19:45	50.1	50.1	50.1	85	45.8	2	7	90	0.00	30.047 
19:50	49.9	49.9	49.9	85	45.6	2	5	68	0.01	30.047 
19:55	49.9	49.9	49.9	86	45.9	2	7	68	0.00	30.047 
20:00	49.8	49.8	49.8	87	46.1	2	9	90	0.01	30.042 
20:05	49.6	49.6	49.6	88	46.2	2	6	68	0.00	30.042 
20:10	49.6	49.6	49.6	88	46.2	3	6	90	0.01	30.042 
20:15	49.5	49.5	49.5	89	46.4	2	6	90	0.00	30.040 
20:20	49.4	49.4	49.4	90	46.6	3	7	90	0.01	30.040 
20:25	49.4	49.4	49.4	90	46.6	2	5	112	0.00	30.040 
20:30	49.2	49.2	49.2	91	46.7	2	7	68	0.01	30.038 
20:35	49.2	49.2	49.2	91	46.7	2	7	112	0.01	30.038 
20:40	49.1	49.1	49.1	92	46.9	1	9	112	0.00	30.038 
20:45	49.1	49.1	49.1	92	46.9	2	6	90	0.01	30.028 
20:50	49.1	49.1	49.1	92	46.9	3	7	90	0.00	30.028 
20:55	49.1	49.1	49.1	92	46.9	2	5	90	0.01	30.028 
21:00	49.1	49.1	49.1	92	46.9	3	7	90	0.00	30.014 
21:05	49.1	49.1	49.1	93	47.2	3	6	90	0.00	30.014 
21:10	49.1	49.1	49.1	93	47.2	3	6	90	0.01	30.014 
21:15	49.2	49.2	49.2	93	47.3	3	6	90	0.01	30.001 
21:20	49.2	49.2	49.2	93	47.3	2	6	90	0.00	30.001 
21:25	49.2	49.2	49.2	93	47.3	3	9	90	0.01	30.001 
21:30	49.4	49.4	49.4	93	47.5	2	7	90	0.01	29.987 
21:35	49.4	49.4	49.4	93	47.5	3	7	90	0.00	29.987 
21:40	49.5	49.5	49.5	93	47.6	3	10	90	0.01	29.987 
21:45	49.6	49.6	49.6	94	47.9	3	9	90	0.01	29.977 
21:50	49.8	49.8	49.8	94	48.1	3	7	112	0.01	29.977 
21:55	49.8	49.8	49.8	94	48.1	2	7	112	0.01	29.977 
22:00	49.9	49.9	49.9	94	48.2	3	11	90	0.00	29.970 
22:05	49.9	49.9	49.9	94	48.2	3	6	90	0.01	29.970 
22:10	50.1	50.1	50.1	94	48.4	3	10	90	0.00	29.970 
22:15	50.1	50.1	50.1	94	48.4	3	9	90	0.01	29.959 
22:20	50.2	50.2	50.2	94	48.5	4	12	112	0.00	29.959 
22:25	50.2	50.2	50.2	94	48.5	3	10	90	0.01	29.959 
22:30	50.2	50.2	50.2	94	48.5	3	9	90	0.01	29.945 
22:35	50.2	50.2	50.2	94	48.5	4	9	90	0.00	29.945 
22:40	50.2	50.2	50.2	94	48.5	3	7	90	0.00	29.945 
22:45	50.2	50.2	50.2	94	48.5	3	6	90	0.00	29.940 
22:50	50.2	50.2	50.2	94	48.5	4	7	90	0.01	29.940 
22:55	50.2	50.2	50.2	94	48.5	4	7	90	0.00	29.940 
23:00	50.2	50.2	50.2	94	48.5	4	7	112	0.00	29.928 
23:05	50.4	50.4	50.4	94	48.7	4	10	90	0.00	29.928 
23:10	50.4	50.4	50.4	94	48.7	4	10	90	0.00	29.928 
23:15	50.4	50.4	50.4	94	48.7	4	9	112	0.01	29.918 
23:20	50.4	50.4	50.4	94	48.7	4	10	90	0.01	29.918 
23:25	50.4	50.4	50.4	94	48.7	4	10	112	0.01	29.918 
23:30	50.4	50.4	50.4	95	49.0	4	7	90	0.02	29.904 
23:35	50.4	50.4	50.4	95	49.0	5	10	90	0.00	29.904 
23:40	50.4	50.4	50.4	95	49.0	4	11	90	0.01	29.904 
23:45	50.4	50.4	50.4	95	49.0	4	8	90	0.00	29.895 
23:50	50.2	50.2	50.2	95	48.8	4	7	90	0.01	29.895 
23:55	50.2	50.2	50.2	95	48.8	4	11	90	0.00	29.895 

CoCoRaHS
IN-AL-39
A2 Web Hosting
Creative Commons License
GoDaddy
search engine by freefind advanced

loaded 2018-11-15 02:57:39 • last modified 2010-11-18 10:43:29
Privacy PolicyDisclaimer
• wx.awcolley.com is powered by PmWiki v.2002016 •
• all content (unless otherwise noted) © 2018 A W Colley